Карточка аэропорта USHH

Внимание!
Информация на этой странице в стадии наполнения.
Если вы не увидели какой-то информации, или заметили неточность - пожалуйста сообщите нам!
Спасибо!
Команда RU-STAFF
Название аэропортаХанты-Мансийск
Название аэропорта (англ.)Khanty-Mansiysk
Превышение141 ft. (43 m.)
Координаты61°1.7039999999999', 69°5.1599999999999'
Высота перехода3000ft
Эшелон переходаQNH>=1013hPa:FL040; QNH>=977hPa:FL050; QNH<=977hPa:FL060
Коды ответчика5150-5177
Зона ОрВДТюмень РПИ (USTV)
Данные METARUSHH 210330Z 19005MPS CAVOK 18/04 Q1006 R24/010060 NOSIG
Проноз погоды (TAF)USHH 210139Z 2103/2203 20005G14MPS 9999 SCT020 TEMPO 2103/2106 15005MPS TEMPO 2112/2118 32008G17MPS 4000 -TSRA BKN016CB BECMG 2118/2119 32003G12MPS
NOTAMshow/hide NOTAM
AWOS   TABLE

Информация о ВПП

ВПП Длина ВПП (м.) Покрытие Курс ВПП Частота ILS
062800Асфальтобетон58111.9
242800Асфальтобетон238110.1

Диспетчерские позиции

Позывной Наименование органа УВД Частота
USHH_TWRХантым-Вышка118.1
USHH_R_APPХантым-Круг120.4



Спутниковое изображение